Flag for U.S.A. Weather past 2 weeks in Durango, Colorado, U.S.A.

Now
36 °F

Clear.


Feels Like: 36 °F
Forecast: 38 / 69 °F
Wind: No wind

Location: Durango-La Plata County Airport

Current Time: Oct 24, 2014 at 6:48:37 AM

Latest Report: Oct 24, 2014 at 5:53 AM


Visibility: 10 mi

Pressure: 30.26 "Hg

Humidity: 89%

Dew point: 33 °F

Location of DurangoLocation

Historic Weather in Durango — Graph

°F

Durango temperature yesterday

Maximum temperature yesterday: 66 °F (at 2:53 PM)
Minimum temperature yesterday: 34 °F (at 6:53 AM)
Average temperature yesterday: 49 °F

Past Weeks' High & Low Weather Summary

 TemperatureHumidityPressure
High70 °F (Oct 16, 3:53 PM)100% (Oct 11, 8:00 AM)30.34 "Hg (Oct 11, 8:00 AM)
Low28 °F (Oct 13, 6:53 AM)19% (Oct 16, 4:53 PM)29.72 "Hg (Oct 12, 1:53 PM)
Average50 °F66%30.08 "Hg
* Reported Oct 9 4:53 AM — Oct 24 4:53 AM, Durango, Weather by CustomWeather, © 2014

Note: Actual official high and low records may vary slightly from our data, if they occured in-between our weather recording intervals... More about our weather records

Advertising

Durango weather history for previous 24 hours

 ConditionsComfort  
Time TempWeatherWind HumidityBarometerVisibility
4:53 AM
Oct 24
34 °FClear.No wind92%30.24 "Hg10 mi
3:53 AM38 °FClear.6 mph83%30.23 "Hg10 mi
2:53 AM38 °FClear.7 mph86%30.24 "Hg10 mi
1:53 AM38 °FClear.5 mph86%30.24 "Hg10 mi
12:53 AM42 °FClear.5 mph76%30.23 "Hg10 mi
11:53 PM
Oct 23
43 °FClear.No wind76%30.24 "Hg10 mi
10:53 PM43 °FClear.5 mph79%30.25 "Hg10 mi
9:53 PM46 °FClear.3 mph71%30.26 "Hg10 mi
8:53 PM48 °FClear.5 mph68%30.25 "Hg10 mi
7:53 PM52 °FClear.No wind57%30.25 "Hg10 mi
6:53 PM58 °FSunny.6 mph44%30.22 "Hg10 mi
5:53 PM62 °FSunny.10 mph38%30.17 "Hg10 mi
4:53 PM65 °FSunny.9 mph36%30.15 "Hg10 mi
3:53 PM66 °FSunny.8 mph34%30.15 "Hg10 mi
2:53 PM66 °FSunny.12 mph34%30.15 "Hg10 mi
1:53 PM64 °FSunny.7 mph37%30.17 "Hg10 mi
12:53 PM62 °FSunny.7 mph41%30.20 "Hg10 mi
11:53 AM59 °FSunny.No wind46%30.24 "Hg10 mi
10:53 AM53 °FSunny.No wind56%30.27 "Hg10 mi
9:53 AM46 °FSunny.5 mph71%30.30 "Hg10 mi
8:53 AM42 °FSunny.5 mph79%30.26 "Hg10 mi
7:53 AM36 °FClear.3 mph92%30.25 "Hg10 mi
6:53 AM34 °FClear.3 mph92%30.23 "Hg10 mi
Weather by CustomWeather, © 2014

See weather overviewHow to use our weather pages